sat.trackr.live / text

‹ back to catalog

ONEWEB-0354

NORAD 49217 · 2021-083AH

PAYLOAD ACTIVE UNKNOWN

§ Identity

Operator
Country
UK
Launch date
2021-09-14
Launch site
TYMSC
Launch vehicle
Mass (kg)
RCS (m²)

Purposes: comms

External: N2YO · Heavens-Above · Gunter

§ Orbital elements

Epoch: 2026-09-20T05:00:12.648672Z

Period
109.03 min
Inclination
87.9145°
Eccentricity
0.0001844
Mean motion
13.20771324 rev/d
Perigee alt
1,180.4 km
Apogee alt
1,183.2 km
Semi-major
7,559.9 km
B*
2.1030e-4
RAAN
255.4824°
Arg perigee
102.0262°
Mean anomaly
258.1078°
Rev number
24,935

§ Raw data

ONEWEB-03541 49217U 21083AH  26263.20847973  .00000098  00000+0  21030-3 0  99912 49217  87.9145 255.4824 0001844 102.0262 258.1078 13.20771324249353

JSON: /api/v1/satellites/49217 · /tle

For live sub-satellite position, see the globe view (requires WebGL).

§ Visibility from observer

Set your observer location to see the next 7 days of passes ≥ 10°. The values pass through the URL so the page stays shareable.

No JS? Fill the form by hand. The geolocation button needs JavaScript.